Showing default

AE1A, 68487

Orbit data source: Space-Track

AE1A, 68487 is a payload satellite owned by ArkEdge (JP) in SSO that was launched on Mon, 30 Mar 2026 UTC via an FALCON 9 launch vehicle from the Air Force Western Test Range (AFWTR). Payload-class satellites include a variety of spacecraft equipped with specific instruments for various scientific and technological missions. These include communications satellites like Starlink; space stations such as the ISS; scientific satellites like the Hubble; Earth observation satellites from companies like Planet Labs, Umbra, and HawkEye 360; GPS; miniature CubeSats for education and research; and military/defense satellites.

Loading next visibility...
Identifier
68487, 2026-067BZ
Orbit
SSO
Country
Flag of JPJP / JPN
Related business
Manufacturer
ArkEdge
Mission
Operational spacecraft
Bus & Motor
CUBESAT 6U, Unknown motor
Mass
~10 kg wet, ~10 kg dry
Launch date (UTC)
2026-03-30 (3 months ago)
Launch vehicle
FALCON 9
Launch site
Air Force Western Test Range (AFWTR)
Object type
Payload
Rocket body
Debris
Shape & HBR
Unknown shape, 0.6 m
Radar Cross Section
Medium (>0.1 m² and <1 m²)

Expand to show TLE details & history
Last TLE update: 2 days ago

TLE from 2 days ago
0 AE1A
1 68487U 26067BZ  26171.43288532  .00003632  00000-0  35737-3 0  9998
2 68487  97.7543 129.6670 0001052 152.6212 207.5062 14.92710712 12210
Epoch: 2026-06-20T10:23Z
TLE epoch observation values (Epoch: 2026-06-20T10:23:21.291Z)
Latitude
-0.00012°
Longitude
65.18072°
Altitude
593.181 km
Speed
7.563 km/s
True Right ascension
08h 38m 40s
True Declination
0° 00' 00"
Sunlit
Object was in daylight at epoch
Visualization orbit readout
Latitude
Unknown
Longitude
Unknown
Altitude
Unknown
Speed
Unknown
Apparent Right ascension
Unknown
Apparent Declination
Unknown
Sunlit
N/A
Visualization observer readout
Local Sidereal Time
15:15:52
Azimuth
Unknown
Elevation
Unknown
Doppler factor
Unknown
Orbital elements
Apogee altitude
587.238 km
Perigee altitude
585.772 km
Semi-major axis
6,964.642 km
Eccentricity
0.00011
Inclination
97.7543°
RAAN
129.667°
Arg. of periapsis
152.6212°
True anomaly
207.50063°
Mean anomaly
207.5062°
Eccentric anomaly
207.50342°
Mean motion
3.73418 °/min
Orbital period
96.41 mins
BSTAR
0.00035737
Loading maneuver chart data...
Computing Atmospheric mass density...
Loading historical data...
Loading historical data...
Loading historical data...
Loading historical data...
Loading historical data...
Loading historical data...
Loading historical data...

Documentation

Showing up to 5 results
|